TimeEST,TemperatureF,Dew PointF,Humidity,Sea Level PressureIn,VisibilityMPH,Wind Direction,Wind SpeedMPH,Gust SpeedMPH,PrecipitationIn,Events,Conditions,WindDirDegrees,DateUTC
12:01 AM,30.2,30.2,100,29.92,2.5,NNW,4.6,-,0.02,,Overcast,340,2013-12-22 05:01:00
12:09 AM,30.2,30.2,100,29.91,2.5,NNW,4.6,-,0.03,,Overcast,340,2013-12-22 05:09:00
12:20 AM,30.2,30.2,100,29.92,3.0,NNW,4.6,-,0.04,,Overcast,330,2013-12-22 05:20:00
12:39 AM,30.2,30.2,100,29.91,2.5,NNW,4.6,-,0.07,Rain,Light Freezing Rain,330,2013-12-22 05:39:00
12:47 AM,30.2,30.2,100,29.90,3.0,NNW,3.5,-,0.07,Rain,Light Freezing Rain,330,2013-12-22 05:47:00
12:51 AM,30.9,30.9,100,29.93,3.0,NNW,3.5,-,0.08,Rain,Light Freezing Rain,330,2013-12-22 05:51:00
12:59 AM,30.2,30.2,100,29.90,3.0,NNW,4.6,-,0.00,Rain,Light Freezing Rain,330,2013-12-22 05:59:00
1:16 AM,30.2,30.2,100,29.91,2.0,WNW,3.5,-,0.02,Rain,Light Freezing Rain,300,2013-12-22 06:16:00
1:25 AM,30.2,30.2,100,29.90,1.8,Calm,Calm,-,0.04,Rain,Light Freezing Rain,0,2013-12-22 06:25:00
1:31 AM,30.2,30.2,100,29.90,2.0,NW,3.5,-,0.05,Rain,Light Freezing Rain,310,2013-12-22 06:31:00
1:41 AM,30.2,30.2,100,29.90,3.0,NW,3.5,-,0.06,Rain,Light Freezing Rain,320,2013-12-22 06:41:00
1:51 AM,30.9,30.9,100,29.92,3.0,NNW,3.5,-,0.08,Rain,Light Freezing Rain,330,2013-12-22 06:51:00
2:00 AM,30.2,30.2,100,29.89,3.0,NNW,3.5,-,0.01,Rain,Light Freezing Rain,330,2013-12-22 07:00:00
2:09 AM,30.2,30.2,100,29.89,3.0,NNW,3.5,-,0.03,Rain,Light Freezing Rain,330,2013-12-22 07:09:00
2:30 AM,30.2,30.2,100,29.89,4.0,NW,3.5,-,0.07,,Overcast,320,2013-12-22 07:30:00
2:51 AM,30.9,30.9,100,29.92,4.0,NNW,3.5,-,0.08,,Overcast,330,2013-12-22 07:51:00
2:56 AM,30.2,30.2,100,29.89,3.0,NNW,3.5,-,0.01,Rain,Light Freezing Rain,330,2013-12-22 07:56:00
3:06 AM,30.2,30.2,100,29.88,2.5,Calm,Calm,-,0.02,Rain,Light Freezing Rain,0,2013-12-22 08:06:00
3:10 AM,30.2,30.2,100,29.88,3.0,Calm,Calm,-,0.03,Rain,Light Freezing Rain,0,2013-12-22 08:10:00
3:12 AM,30.2,30.2,100,29.88,2.5,Calm,Calm,-,0.04,Rain,Light Freezing Rain,0,2013-12-22 08:12:00
3:26 AM,30.2,30.2,100,29.87,3.0,Calm,Calm,-,0.07,Rain,Light Freezing Rain,0,2013-12-22 08:26:00
3:31 AM,30.2,30.2,100,29.86,3.0,Calm,Calm,-,0.07,Rain,Light Freezing Rain,0,2013-12-22 08:31:00
3:51 AM,30.9,30.9,100,29.89,3.0,WNW,3.5,-,0.10,Rain,Light Freezing Rain,300,2013-12-22 08:51:00
4:04 AM,30.2,30.2,100,29.83,2.5,Variable,3.5,-,0.04,Rain,Light Freezing Rain,0,2013-12-22 09:04:00
4:07 AM,30.2,30.2,100,29.83,3.0,Calm,Calm,-,0.04,Rain,Light Freezing Rain,0,2013-12-22 09:07:00
4:23 AM,30.2,30.2,100,29.84,5.0,Calm,Calm,-,0.05,Rain,Light Freezing Rain,0,2013-12-22 09:23:00
4:51 AM,30.9,30.9,100,29.81,5.0,Calm,Calm,-,0.09,,Overcast,0,2013-12-22 09:51:00
5:32 AM,30.2,30.2,100,29.78,10.0,NW,4.6,-,0.05,,Overcast,310,2013-12-22 10:32:00
5:51 AM,30.9,30.9,100,29.81,7.0,Calm,Calm,-,0.07,,Overcast,0,2013-12-22 10:51:00
6:19 AM,30.2,30.2,100,29.75,1.8,Calm,Calm,-,0.00,,Overcast,0,2013-12-22 11:19:00
6:22 AM,30.2,30.2,100,29.74,1.0,Calm,Calm,-,0.00,,Overcast,0,2013-12-22 11:22:00
6:27 AM,30.2,30.2,100,29.74,0.5,Calm,Calm,-,0.00,Fog,Light Freezing Fog,0,2013-12-22 11:27:00
6:36 AM,30.2,30.2,100,29.76,0.2,Calm,Calm,-,0.01,Fog,Light Freezing Fog,0,2013-12-22 11:36:00
6:51 AM,30.9,30.9,100,29.80,0.8,Calm,Calm,-,0.01,,Mist,0,2013-12-22 11:51:00
7:02 AM,30.2,30.2,100,29.75,1.2,Calm,Calm,-,0.02,,Overcast,0,2013-12-22 12:02:00
7:09 AM,30.2,30.2,100,29.76,2.0,Calm,Calm,-,0.03,,Overcast,0,2013-12-22 12:09:00
7:18 AM,32.0,32.0,100,29.77,3.0,Calm,Calm,-,0.04,,Overcast,0,2013-12-22 12:18:00
7:28 AM,32.0,30.2,93,29.77,2.5,East,3.5,-,0.06,,Overcast,100,2013-12-22 12:28:00
7:36 AM,32.0,30.2,93,29.78,2.5,Calm,Calm,-,0.09,,Overcast,0,2013-12-22 12:36:00
7:43 AM,32.0,32.0,100,29.77,3.0,Calm,Calm,-,0.11,,Overcast,0,2013-12-22 12:43:00
7:51 AM,32.0,32.0,100,29.81,4.0,Calm,Calm,-,0.13,,Overcast,0,2013-12-22 12:51:00
8:32 AM,32.0,30.2,93,29.78,2.0,NW,4.6,-,0.03,,Overcast,310,2013-12-22 13:32:00
8:42 AM,32.0,32.0,100,29.78,4.0,Calm,Calm,-,0.04,,Overcast,0,2013-12-22 13:42:00
8:51 AM,32.0,32.0,100,29.84,7.0,North,3.5,-,0.04,,Overcast,350,2013-12-22 13:51:00
9:08 AM,32.0,30.2,93,29.78,3.0,Calm,Calm,-,0.00,,Overcast,0,2013-12-22 14:08:00
9:17 AM,32.0,32.0,100,29.80,2.5,Calm,Calm,-,0.00,,Overcast,0,2013-12-22 14:17:00
9:35 AM,32.0,32.0,100,29.80,1.2,Calm,Calm,-,0.00,,Overcast,0,2013-12-22 14:35:00
9:41 AM,32.0,32.0,100,29.81,0.8,Calm,Calm,-,0.00,,Mist,0,2013-12-22 14:41:00
9:51 AM,32.0,32.0,100,29.86,0.5,Calm,Calm,-,0.00,Fog,Fog,0,2013-12-22 14:51:00
10:18 AM,32.0,30.2,93,29.82,1.2,Calm,Calm,-,0.01,,Overcast,0,2013-12-22 15:18:00
10:24 AM,32.0,32.0,100,29.82,2.0,Calm,Calm,-,0.01,,Overcast,0,2013-12-22 15:24:00
10:33 AM,32.0,32.0,100,29.82,4.0,Calm,Calm,-,0.01,,Overcast,0,2013-12-22 15:33:00
10:51 AM,32.0,32.0,100,29.86,9.0,Calm,Calm,-,0.01,,Overcast,0,2013-12-22 15:51:00
11:17 AM,32.0,30.2,93,29.80,1.2,Calm,Calm,-,0.00,,Overcast,0,2013-12-22 16:17:00
11:19 AM,32.0,30.2,93,29.80,0.5,Calm,Calm,-,0.00,Fog,Fog,0,2013-12-22 16:19:00
11:51 AM,32.0,32.0,100,29.81,0.2,Calm,Calm,-,0.00,Fog,Fog,0,2013-12-22 16:51:00
12:08 PM,32.0,32.0,100,29.75,0.2,Calm,Calm,-,N/A,Fog,Fog,0,2013-12-22 17:08:00
12:20 PM,32.0,32.0,100,29.73,0.2,SE,3.5,-,N/A,Fog,Fog,130,2013-12-22 17:20:00
12:32 PM,32.0,32.0,100,29.71,0.2,SSE,4.6,-,N/A,Fog,Fog,150,2013-12-22 17:32:00
12:51 PM,32.0,32.0,100,29.77,0.2,NW,10.4,-,N/A,Fog,Fog,320,2013-12-22 17:51:00
1:51 PM,32.0,32.0,100,29.83,0.2,South,4.6,-,N/A,Fog,Fog,180,2013-12-22 18:51:00
2:42 PM,33.8,33.8,100,29.76,1.2,SSW,3.5,-,N/A,,Overcast,200,2013-12-22 19:42:00
2:45 PM,33.8,33.8,100,29.76,2.0,SSW,3.5,-,N/A,,Overcast,210,2013-12-22 19:45:00
2:51 PM,33.1,33.1,100,29.82,4.0,Calm,Calm,-,N/A,,Overcast,0,2013-12-22 19:51:00
3:07 PM,33.8,33.8,100,29.78,2.5,Calm,Calm,-,N/A,,Overcast,0,2013-12-22 20:07:00
3:18 PM,33.8,33.8,100,29.78,1.2,Calm,Calm,-,N/A,,Overcast,0,2013-12-22 20:18:00
3:22 PM,33.8,33.8,100,29.78,0.8,Calm,Calm,-,N/A,,Overcast,0,2013-12-22 20:22:00
3:51 PM,33.1,33.1,100,29.83,0.2,Calm,Calm,-,N/A,Fog,Fog,0,2013-12-22 20:51:00
4:02 PM,33.8,33.8,100,29.78,0.2,Calm,Calm,-,N/A,Fog,Fog,0,2013-12-22 21:02:00
4:51 PM,33.1,33.1,100,29.85,0.2,Calm,Calm,-,N/A,Fog,Fog,0,2013-12-22 21:51:00
5:51 PM,33.1,32.0,96,29.86,0.2,Calm,Calm,-,N/A,Fog,Fog,0,2013-12-22 22:51:00
6:30 PM,33.8,33.8,100,29.83,1.0,Calm,Calm,-,N/A,,Overcast,0,2013-12-22 23:30:00
6:33 PM,33.8,33.8,100,29.83,1.5,Calm,Calm,-,N/A,,Overcast,0,2013-12-22 23:33:00
6:35 PM,33.8,33.8,100,29.83,2.0,Calm,Calm,-,N/A,,Overcast,0,2013-12-22 23:35:00
6:48 PM,33.8,33.8,100,29.83,2.0,Calm,Calm,-,N/A,,Overcast,0,2013-12-22 23:48:00
6:51 PM,33.1,33.1,100,29.88,2.0,Calm,Calm,-,N/A,,Overcast,0,2013-12-22 23:51:00
7:01 PM,33.8,33.8,100,29.84,1.2,North,3.5,-,N/A,,Overcast,360,2013-12-23 00:01:00
7:07 PM,33.8,33.8,100,29.84,0.8,Calm,Calm,-,N/A,,Overcast,0,2013-12-23 00:07:00
7:19 PM,33.8,33.8,100,29.84,1.2,Calm,Calm,-,N/A,,Overcast,0,2013-12-23 00:19:00
7:25 PM,33.8,33.8,100,29.86,2.0,Calm,Calm,-,N/A,,Overcast,0,2013-12-23 00:25:00
7:33 PM,33.8,33.8,100,29.87,1.8,NNW,3.5,-,N/A,,Overcast,330,2013-12-23 00:33:00
7:36 PM,33.8,33.8,100,29.87,1.0,NNW,3.5,-,N/A,,Overcast,330,2013-12-23 00:36:00
7:43 PM,33.8,33.8,100,29.88,0.5,Calm,Calm,-,N/A,Fog,Fog,0,2013-12-23 00:43:00
7:51 PM,34.0,33.1,96,29.93,0.2,Calm,Calm,-,N/A,Fog,Fog,0,2013-12-23 00:51:00
8:20 PM,33.8,33.8,100,29.89,1.2,Calm,Calm,-,N/A,,Overcast,0,2013-12-23 01:20:00
8:24 PM,33.8,33.8,100,29.90,2.0,Calm,Calm,-,N/A,,Overcast,0,2013-12-23 01:24:00
8:32 PM,33.8,33.8,100,29.89,1.2,Calm,Calm,-,N/A,,Overcast,0,2013-12-23 01:32:00
8:41 PM,35.6,35.6,100,29.89,2.0,Calm,Calm,-,N/A,,Overcast,0,2013-12-23 01:41:00
8:51 PM,35.1,35.1,100,29.94,2.5,Calm,Calm,-,N/A,,Overcast,0,2013-12-23 01:51:00
9:04 PM,33.8,33.8,100,29.90,1.8,Calm,Calm,-,N/A,,Overcast,0,2013-12-23 02:04:00
9:15 PM,35.6,35.6,100,29.91,2.5,NNW,3.5,-,N/A,,Overcast,340,2013-12-23 02:15:00
9:18 PM,35.6,35.6,100,29.91,1.2,Calm,Calm,-,N/A,,Overcast,0,2013-12-23 02:18:00
9:28 PM,35.6,35.6,100,29.92,2.0,Calm,Calm,-,N/A,,Overcast,0,2013-12-23 02:28:00
9:41 PM,35.6,35.6,100,29.92,1.2,Calm,Calm,-,N/A,,Overcast,0,2013-12-23 02:41:00
9:51 PM,34.0,34.0,100,29.97,1.0,Calm,Calm,-,0.00,Rain,Light Rain,0,2013-12-23 02:51:00
10:01 PM,35.6,35.6,100,29.93,1.5,South,4.6,-,0.00,Rain,Light Rain,180,2013-12-23 03:01:00
10:05 PM,35.6,35.6,100,29.92,3.0,SSE,4.6,-,0.00,Rain,Light Rain,160,2013-12-23 03:05:00
10:17 PM,35.6,35.6,100,29.92,2.0,ESE,3.5,-,0.00,,Overcast,120,2013-12-23 03:17:00
10:24 PM,35.6,35.6,100,29.92,1.2,Calm,Calm,-,0.00,,Overcast,0,2013-12-23 03:24:00
10:28 PM,35.6,35.6,100,29.92,0.8,Calm,Calm,-,0.00,,Overcast,0,2013-12-23 03:28:00
10:51 PM,36.0,35.1,97,29.98,0.5,Calm,Calm,-,0.00,Fog-Rain,Light Rain,0,2013-12-23 03:51:00
11:07 PM,35.6,35.6,100,29.96,0.5,Calm,Calm,-,0.00,Fog,Fog,0,2013-12-23 04:07:00
11:51 PM,35.1,35.1,100,29.99,0.2,Calm,Calm,-,0.00,Fog,Fog,0,2013-12-23 04:51:00